This demonstration page uses our WeatherBlox Daily Observations layout. Learn more.

Left ArrowRight Arrow

Hourly Observations for October 5, 2022

Temp ( °F °C ) Dew Point ( °F °C ) Humidity (%) Winds ( mph kmh ) Pressure ( in mb ) Visibility ( mi km ) Precip ( " mm )
12:53 am 00:53 Clear 44 6.7 41 5 89 89 WNW 3 6 30.16 1022 10 16 0.00 0.00
1:53 am 01:53 Clear 42 5.6 39 3.9 89 89 Calm 30.15 1021 10 16 0.00 0.00
2:53 am 02:53 Clear 41 5 39 3.9 93 93 Calm 30.14 1021 10 16 0.00 0.00
3:53 am 03:53 Clear 41 5 38 3.3 89 89 Calm 30.14 1021 10 16 0.00 0.00
4:53 am 04:53 Clear 40 4.4 38 3.3 93 93 Calm 30.14 1021 10 16 0.00 0.00
5:53 am 05:53 Clear 40 4.4 38 3.3 93 93 Calm 30.14 1021 10 16 0.00 0.00
6:53 am 06:53 Clear 38 3.3 36 2.2 92 92 Calm 30.16 1021 10 16 0.00 0.00
7:53 am 07:53 Sunny 39 3.9 37 2.8 93 93 Calm 30.17 1022 10 16 0.00 0.00
8:53 am 08:53 Sunny 45 7.2 43 6.1 93 93 Calm 30.18 1022 10 16 0.00 0.00
9:13 am 09:13 Mostly Sunny 47 8.3 44 6.7 90 90 Calm 30.18 1022 10 16 0.00 0.00
9:53 am 09:53 Sunny 52 11.1 44 6.7 74 74 Calm 30.18 1022 10 16 0.00 0.00
10:53 am 10:53 Sunny 60 15.6 45 7.2 57 57 Calm 30.19 1022 10 16 0.00 0.00
11:53 am 11:53 Sunny 67 19.4 37 2.8 33 33 Calm 30.17 1022 10 16 0.00 0.00
12:53 pm 12:53 Sunny 71 21.7 38 3.3 30 30 NW 3 6 30.15 1021 10 16 0.00 0.00
1:53 pm 13:53 Sunny 74 23.3 36 2.2 25 25 Calm 30.14 1021 10 16 0.00 0.00
2:53 pm 14:53 Sunny 75 23.9 36 2.2 24 24 VRB 3 6 30.11 1020 10 16 0.00 0.00
3:53 pm 15:53 Sunny 76 24.4 40 4.4 27 27 S 5 7 30.09 1019 10 16 0.00 0.00
4:53 pm 16:53 Sunny 75 23.9 38 3.3 26 26 Calm 30.08 1019 10 16 0.00 0.00
5:53 pm 17:53 Sunny 72 22.2 43 6.1 35 35 Calm 30.07 1018 10 16 0.00 0.00
6:53 pm 18:53 Sunny 63 17.2 49 9.4 60 60 Calm 30.09 1019 10 16 0.00 0.00
7:53 pm 19:53 Clear 55 12.8 47 8.3 74 74 Calm 30.09 1019 10 16 0.00 0.00
8:53 pm 20:53 Clear 51 10.6 46 7.8 83 83 Calm 30.10 1019 10 16 0.00 0.00
9:53 pm 21:53 Clear 49 9.4 45 7.2 86 86 Calm 30.10 1019 10 16 0.00 0.00
10:53 pm 22:53 Clear 48 8.9 44 6.7 86 86 Calm 30.10 1019 10 16 0.00 0.00
11:53 pm 23:53 Clear 46 7.8 43 6.1 89 89 Calm 30.09 1019 10 16 0.00 0.00

Powered by AerisWeather